TimeCDT,TemperatureF,Dew PointF,Humidity,Sea Level PressureIn,VisibilityMPH,Wind Direction,Wind SpeedMPH,Gust SpeedMPH,PrecipitationIn,Events,Conditions,WindDirDegrees,DateUTC
12:51 AM,51.1,34.0,52,30.21,10.0,Calm,Calm,-,N/A,,Partly Cloudy,0,2012-10-29 05:51:00
1:51 AM,53.1,42.1,66,30.21,10.0,North,8.1,-,N/A,,Partly Cloudy,360,2012-10-29 06:51:00
2:51 AM,52.0,39.9,63,30.20,10.0,North,8.1,-,N/A,,Partly Cloudy,10,2012-10-29 07:51:00
3:51 AM,55.0,39.0,55,30.19,10.0,NNE,9.2,-,N/A,,Mostly Cloudy,20,2012-10-29 08:51:00
4:51 AM,54.0,39.0,57,30.19,10.0,NNE,9.2,-,N/A,,Partly Cloudy,20,2012-10-29 09:51:00
5:51 AM,51.1,37.9,61,30.22,10.0,NNE,9.2,-,N/A,,Partly Cloudy,20,2012-10-29 10:51:00
6:51 AM,50.0,37.0,61,30.22,10.0,North,6.9,-,N/A,,Partly Cloudy,10,2012-10-29 11:51:00
7:51 AM,48.0,37.0,66,30.22,10.0,North,4.6,-,N/A,,Partly Cloudy,360,2012-10-29 12:51:00
8:51 AM,57.0,42.1,57,30.26,10.0,NNE,8.1,-,N/A,,Partly Cloudy,20,2012-10-29 13:51:00
9:51 AM,63.0,42.1,46,30.27,10.0,NE,10.4,-,N/A,,Clear,40,2012-10-29 14:51:00
10:51 AM,68.0,42.1,39,30.27,10.0,NE,11.5,-,N/A,,Partly Cloudy,50,2012-10-29 15:51:00
11:51 AM,72.0,39.9,31,30.26,10.0,NE,8.1,-,N/A,,Partly Cloudy,50,2012-10-29 16:51:00
12:51 PM,73.9,37.9,27,30.24,10.0,NE,8.1,-,N/A,,Partly Cloudy,40,2012-10-29 17:51:00
1:51 PM,73.9,39.0,28,30.20,10.0,East,8.1,-,N/A,,Partly Cloudy,80,2012-10-29 18:51:00
2:51 PM,73.9,41.0,30,30.18,10.0,NE,12.7,17.3,N/A,,Partly Cloudy,50,2012-10-29 19:51:00
3:51 PM,75.2,39.2,27,30.15,10.0,East,6.9,-,N/A,,Clear,80,2012-10-29 20:51:00
4:51 PM,73.9,37.9,27,30.14,10.0,East,8.1,-,N/A,,Partly Cloudy,100,2012-10-29 21:51:00
5:51 PM,71.1,39.9,32,30.14,10.0,ESE,9.2,-,N/A,,Clear,110,2012-10-29 22:51:00
6:51 PM,66.9,39.9,37,30.14,10.0,East,9.2,-,N/A,,Clear,100,2012-10-29 23:51:00
7:51 PM,64.0,39.9,41,30.14,10.0,ESE,6.9,-,N/A,,Clear,110,2012-10-30 00:51:00
8:51 PM,62.1,42.1,48,30.15,10.0,ESE,4.6,-,N/A,,Clear,120,2012-10-30 01:51:00
9:51 PM,57.0,37.9,49,30.16,10.0,SE,4.6,-,N/A,,Clear,140,2012-10-30 02:51:00
10:51 PM,57.0,39.9,53,30.16,10.0,Calm,Calm,-,N/A,,Clear,0,2012-10-30 03:51:00
11:51 PM,55.9,42.1,60,30.15,10.0,East,3.5,-,N/A,,Clear,100,2012-10-30 04:51:00